Year,Month,Day,Hour,Minute,Value (Times are PST for temperature in C)
2006,04,02,00,00,7.20
2006,04,02,00,01,7.20
2006,04,02,00,02,7.20
2006,04,02,00,03,7.20
2006,04,02,00,04,7.20
2006,04,02,00,05,7.20
2006,04,02,00,06,7.20
2006,04,02,00,07,7.20
2006,04,02,00,08,7.20
2006,04,02,00,09,7.20
2006,04,02,00,10,7.20
2006,04,02,00,11,7.20
2006,04,02,00,12,7.20
2006,04,02,00,13,7.20
2006,04,02,00,14,7.20
2006,04,02,00,15,7.20
2006,04,02,00,16,7.20
2006,04,02,00,17,7.20
2006,04,02,00,18,7.20
2006,04,02,00,19,7.20
2006,04,02,00,20,7.20
2006,04,02,00,21,7.30
2006,04,02,00,22,7.30
2006,04,02,00,23,7.30
2006,04,02,00,24,7.30
2006,04,02,00,25,7.30
2006,04,02,00,26,7.40
2006,04,02,00,27,7.40
2006,04,02,00,28,7.40
2006,04,02,00,29,7.50
2006,04,02,00,30,7.50
2006,04,02,00,31,7.50
2006,04,02,00,32,7.40
2006,04,02,00,33,7.50
2006,04,02,00,34,7.50
2006,04,02,00,35,7.50
2006,04,02,00,36,7.50
2006,04,02,00,37,7.50
2006,04,02,00,38,7.50
2006,04,02,00,39,7.50
2006,04,02,00,40,7.50
2006,04,02,00,41,7.50
2006,04,02,00,42,7.50
2006,04,02,00,43,7.50
2006,04,02,00,44,7.50
2006,04,02,00,45,7.50
2006,04,02,00,46,7.50
2006,04,02,00,47,7.50
2006,04,02,00,48,7.50
2006,04,02,00,49,7.50
2006,04,02,00,50,7.50
2006,04,02,00,51,7.50
2006,04,02,00,52,7.50
2006,04,02,00,53,7.50
2006,04,02,00,54,7.50
2006,04,02,00,55,7.50
2006,04,02,00,56,7.50
2006,04,02,00,57,7.50
2006,04,02,00,58,7.50
2006,04,02,00,59,7.50
2006,04,02,01,00,7.50
2006,04,02,01,01,7.50
2006,04,02,01,02,7.40
2006,04,02,01,03,7.40
2006,04,02,01,04,7.40
2006,04,02,01,05,7.30
2006,04,02,01,06,7.30
2006,04,02,01,07,7.30
2006,04,02,01,08,7.30
2006,04,02,01,09,7.30
2006,04,02,01,10,7.30
2006,04,02,01,11,7.30
2006,04,02,01,12,7.30
2006,04,02,01,13,7.20
2006,04,02,01,14,7.20
2006,04,02,01,15,7.20
2006,04,02,01,16,7.10
2006,04,02,01,17,7.10
2006,04,02,01,18,7.10
2006,04,02,01,19,7.00
2006,04,02,01,20,7.00
2006,04,02,01,21,7.00
2006,04,02,01,22,7.00
2006,04,02,01,23,6.90
2006,04,02,01,24,6.90
2006,04,02,01,25,6.90
2006,04,02,01,26,6.90
2006,04,02,01,27,6.90
2006,04,02,01,28,6.90
2006,04,02,01,29,6.90
2006,04,02,01,30,6.90
2006,04,02,01,31,6.80
2006,04,02,01,32,6.80
2006,04,02,01,33,6.80
2006,04,02,01,34,6.80
2006,04,02,01,35,6.80
2006,04,02,01,36,6.80
2006,04,02,01,37,6.80
2006,04,02,01,38,6.80
2006,04,02,01,39,6.80
2006,04,02,01,40,6.80
2006,04,02,01,41,6.80
2006,04,02,01,42,6.80
2006,04,02,01,43,6.80
2006,04,02,01,44,6.80
2006,04,02,01,45,6.80
2006,04,02,01,46,6.80
2006,04,02,01,47,6.80
2006,04,02,01,48,6.80
2006,04,02,01,49,6.80
2006,04,02,01,50,6.70
2006,04,02,01,51,6.70
2006,04,02,01,52,6.70
2006,04,02,01,53,6.70
2006,04,02,01,54,6.70
2006,04,02,01,55,6.70
2006,04,02,01,56,6.60
2006,04,02,01,57,6.60
2006,04,02,01,58,6.60
2006,04,02,01,59,6.60
2006,04,02,03,00,6.60
2006,04,02,03,01,6.60
2006,04,02,03,02,6.60
2006,04,02,03,03,6.60
2006,04,02,03,04,6.60
2006,04,02,03,05,6.50
2006,04,02,03,06,6.40
2006,04,02,03,07,6.40
2006,04,02,03,08,6.40
2006,04,02,03,09,6.30
2006,04,02,03,10,6.30
2006,04,02,03,11,6.20
2006,04,02,03,12,6.20
2006,04,02,03,13,6.30
2006,04,02,03,14,6.30
2006,04,02,03,15,6.30
2006,04,02,03,16,6.20
2006,04,02,03,17,6.20
2006,04,02,03,18,6.20
2006,04,02,03,19,6.20
2006,04,02,03,20,6.20
2006,04,02,03,21,6.20
2006,04,02,03,22,6.20
2006,04,02,03,23,6.30
2006,04,02,03,24,6.40
2006,04,02,03,25,6.40
2006,04,02,03,26,6.40
2006,04,02,03,27,6.40
2006,04,02,03,28,6.40
2006,04,02,03,29,6.40
2006,04,02,03,30,6.40
2006,04,02,03,31,6.50
2006,04,02,03,32,6.60
2006,04,02,03,33,6.60
2006,04,02,03,34,6.70
2006,04,02,03,35,6.70
2006,04,02,03,36,6.80
2006,04,02,03,37,6.80
2006,04,02,03,38,6.80
2006,04,02,03,39,6.80
2006,04,02,03,40,6.80
2006,04,02,03,41,6.80
2006,04,02,03,42,6.80
2006,04,02,03,43,6.90
2006,04,02,03,44,6.90
2006,04,02,03,45,6.90
2006,04,02,03,46,6.90
2006,04,02,03,47,6.90
2006,04,02,03,48,6.90
2006,04,02,03,49,6.90
2006,04,02,03,50,6.90
2006,04,02,03,51,6.90
2006,04,02,03,52,6.90
2006,04,02,03,53,6.80
2006,04,02,03,54,6.80
2006,04,02,03,55,6.80
2006,04,02,03,56,6.80
2006,04,02,03,57,6.80
2006,04,02,03,58,6.80
2006,04,02,03,59,6.80
2006,04,02,04,00,6.80
2006,04,02,04,01,6.80
2006,04,02,04,02,6.80
2006,04,02,04,03,6.80
2006,04,02,04,04,6.80
2006,04,02,04,05,6.80
2006,04,02,04,06,6.70
2006,04,02,04,07,6.70
2006,04,02,04,08,6.70
2006,04,02,04,09,6.70
2006,04,02,04,10,6.70
2006,04,02,04,11,6.70
2006,04,02,04,12,6.70
2006,04,02,04,13,6.70
2006,04,02,04,14,6.70
2006,04,02,04,15,6.80
2006,04,02,04,16,6.70
2006,04,02,04,17,6.70
2006,04,02,04,18,6.70
2006,04,02,04,19,6.70
2006,04,02,04,20,6.70
2006,04,02,04,21,6.80
2006,04,02,04,22,6.80
2006,04,02,04,23,6.80
2006,04,02,04,24,6.80
2006,04,02,04,25,6.80
2006,04,02,04,26,6.80
2006,04,02,04,27,6.80
2006,04,02,04,28,6.80
2006,04,02,04,29,6.80
2006,04,02,04,30,6.80
2006,04,02,04,31,6.80
2006,04,02,04,32,6.80
2006,04,02,04,33,6.80
2006,04,02,04,34,6.80
2006,04,02,04,35,6.90
2006,04,02,04,36,7.00
2006,04,02,04,37,7.00
2006,04,02,04,38,7.10
2006,04,02,04,39,7.10
2006,04,02,04,40,7.10
2006,04,02,04,41,7.20
2006,04,02,04,42,7.20
2006,04,02,04,43,7.30
2006,04,02,04,44,7.30
2006,04,02,04,45,7.30
2006,04,02,04,46,7.40
2006,04,02,04,47,7.40
2006,04,02,04,48,7.40
2006,04,02,04,49,7.40
2006,04,02,04,50,7.40
2006,04,02,04,51,7.40
2006,04,02,04,52,7.40
2006,04,02,04,53,7.50
2006,04,02,04,54,7.50
2006,04,02,04,55,7.50
2006,04,02,04,56,7.50
2006,04,02,04,57,7.50
2006,04,02,04,58,7.50
2006,04,02,04,59,7.60
2006,04,02,05,00,7.60
2006,04,02,05,01,7.60
2006,04,02,05,02,7.60
2006,04,02,05,03,7.70
2006,04,02,05,04,7.70
2006,04,02,05,05,7.70
2006,04,02,05,06,7.70
2006,04,02,05,07,7.60
2006,04,02,05,08,7.60
2006,04,02,05,09,7.60
2006,04,02,05,10,7.50
2006,04,02,05,11,7.50
2006,04,02,05,12,7.50
2006,04,02,05,13,7.50
2006,04,02,05,14,7.50
2006,04,02,05,15,7.50
2006,04,02,05,16,7.50
2006,04,02,05,17,7.50
2006,04,02,05,18,7.50
2006,04,02,05,19,7.40
2006,04,02,05,20,7.40
2006,04,02,05,21,7.40
2006,04,02,05,22,7.40
2006,04,02,05,23,7.30
2006,04,02,05,24,7.30
2006,04,02,05,25,7.30
2006,04,02,05,26,7.30
2006,04,02,05,27,7.30
2006,04,02,05,28,7.30
2006,04,02,05,29,7.30
2006,04,02,05,30,7.30
2006,04,02,05,31,7.40
2006,04,02,05,32,7.40
2006,04,02,05,33,7.40
2006,04,02,05,34,7.40
2006,04,02,05,35,7.40
2006,04,02,05,36,7.50
2006,04,02,05,37,7.50
2006,04,02,05,38,7.50
2006,04,02,05,39,7.40
2006,04,02,05,40,7.40
2006,04,02,05,41,7.40
2006,04,02,05,42,7.50
2006,04,02,05,43,7.50
2006,04,02,05,44,7.50
2006,04,02,05,45,7.50
2006,04,02,05,46,7.50
2006,04,02,05,47,7.50
2006,04,02,05,48,7.50
2006,04,02,05,49,7.50
2006,04,02,05,50,7.50
2006,04,02,05,51,7.50
2006,04,02,05,52,7.50
2006,04,02,05,53,7.60
2006,04,02,05,54,7.60
2006,04,02,05,55,7.60
2006,04,02,05,56,7.60
2006,04,02,05,57,7.60
2006,04,02,05,58,7.60
2006,04,02,05,59,7.60
2006,04,02,06,00,7.60
2006,04,02,06,01,7.60
2006,04,02,06,02,7.60
2006,04,02,06,03,7.60
2006,04,02,06,04,7.60
2006,04,02,06,05,7.50
2006,04,02,06,06,7.50
2006,04,02,06,07,7.50
2006,04,02,06,08,7.50
2006,04,02,06,09,7.50
2006,04,02,06,10,7.50
2006,04,02,06,11,7.50
2006,04,02,06,12,7.50
2006,04,02,06,13,7.50
2006,04,02,06,14,7.50
2006,04,02,06,15,7.50
2006,04,02,06,16,7.50
2006,04,02,06,17,7.50
2006,04,02,06,18,7.50
2006,04,02,06,19,7.50
2006,04,02,06,20,7.50
2006,04,02,06,21,7.50
2006,04,02,06,22,7.50
2006,04,02,06,23,7.50
2006,04,02,06,24,7.60
2006,04,02,06,25,7.60
2006,04,02,06,26,7.60
2006,04,02,06,27,7.60
2006,04,02,06,28,7.70
2006,04,02,06,29,7.70
2006,04,02,06,30,7.70
2006,04,02,06,31,7.70
2006,04,02,06,32,7.70
2006,04,02,06,33,7.60
2006,04,02,06,34,7.60
2006,04,02,06,35,7.60
2006,04,02,06,36,7.60
2006,04,02,06,37,7.60
2006,04,02,06,38,7.60
2006,04,02,06,39,7.60
2006,04,02,06,40,7.60
2006,04,02,06,41,7.60
2006,04,02,06,42,7.60
2006,04,02,06,43,7.60
2006,04,02,06,44,7.60
2006,04,02,06,45,7.60
2006,04,02,06,46,7.60
2006,04,02,06,47,7.60
2006,04,02,06,48,7.60
2006,04,02,06,49,7.60
2006,04,02,06,50,7.60
2006,04,02,06,51,7.60
2006,04,02,06,52,7.60
2006,04,02,06,53,7.50
2006,04,02,06,54,7.50
2006,04,02,06,55,7.50
2006,04,02,06,56,7.50
2006,04,02,06,57,7.50
2006,04,02,06,58,7.50
2006,04,02,06,59,7.50
2006,04,02,07,00,7.50
2006,04,02,07,01,7.50
2006,04,02,07,02,7.50
2006,04,02,07,03,7.50
2006,04,02,07,04,7.50
2006,04,02,07,05,7.50
2006,04,02,07,06,7.50
2006,04,02,07,07,7.50
2006,04,02,07,08,7.50
2006,04,02,07,09,7.50
2006,04,02,07,10,7.50
2006,04,02,07,11,7.50
2006,04,02,07,12,7.50
2006,04,02,07,13,7.50
2006,04,02,07,14,7.50
2006,04,02,07,15,7.50
2006,04,02,07,16,7.60
2006,04,02,07,17,7.60
2006,04,02,07,18,7.60
2006,04,02,07,19,7.60
2006,04,02,07,20,7.60
2006,04,02,07,21,7.60
2006,04,02,07,22,7.60
2006,04,02,07,23,7.60
2006,04,02,07,24,7.60
2006,04,02,07,25,7.60
2006,04,02,07,26,7.60
2006,04,02,07,27,7.60
2006,04,02,07,28,7.60
2006,04,02,07,29,7.60
2006,04,02,07,30,7.50
2006,04,02,07,31,7.50
2006,04,02,07,32,7.50
2006,04,02,07,33,7.60
2006,04,02,07,34,7.50
2006,04,02,07,35,7.50
2006,04,02,07,36,7.50
2006,04,02,07,37,7.50
2006,04,02,07,38,7.50
2006,04,02,07,39,7.50
2006,04,02,07,40,7.50
2006,04,02,07,41,7.60
2006,04,02,07,42,7.60
2006,04,02,07,43,7.60
2006,04,02,07,44,7.60
2006,04,02,07,45,7.60
2006,04,02,07,46,7.60
2006,04,02,07,47,7.60
2006,04,02,07,48,7.60
2006,04,02,07,49,7.60
2006,04,02,07,50,7.60
2006,04,02,07,51,7.60
2006,04,02,07,52,7.70
2006,04,02,07,53,7.70
2006,04,02,07,54,7.70
2006,04,02,07,55,7.70
2006,04,02,07,56,7.70
2006,04,02,07,57,7.70
2006,04,02,07,58,7.70
2006,04,02,07,59,7.70
2006,04,02,08,00,7.70
2006,04,02,08,01,7.70
2006,04,02,08,02,7.70
2006,04,02,08,03,7.70
2006,04,02,08,04,7.70
2006,04,02,08,05,7.70
2006,04,02,08,06,7.70
2006,04,02,08,07,7.70
2006,04,02,08,08,7.80
2006,04,02,08,09,7.80
2006,04,02,08,10,7.80
2006,04,02,08,11,7.80
2006,04,02,08,12,7.80
2006,04,02,08,13,7.80
2006,04,02,08,14,7.80
2006,04,02,08,15,7.80
2006,04,02,08,16,7.80
2006,04,02,08,17,7.80
2006,04,02,08,18,7.80
2006,04,02,08,19,7.80
2006,04,02,08,20,7.80
2006,04,02,08,21,7.80
2006,04,02,08,22,7.80
2006,04,02,08,23,7.80
2006,04,02,08,24,7.80
2006,04,02,08,25,7.80
2006,04,02,08,26,7.80
2006,04,02,08,27,7.80
2006,04,02,08,28,7.80
2006,04,02,08,29,7.80
2006,04,02,08,30,7.80
2006,04,02,08,31,7.80
2006,04,02,08,32,7.80
2006,04,02,08,33,7.80
2006,04,02,08,34,7.80
2006,04,02,08,35,7.80
2006,04,02,08,36,7.80
2006,04,02,08,37,7.80
2006,04,02,08,38,7.80
2006,04,02,08,39,7.80
2006,04,02,08,40,7.80
2006,04,02,08,41,7.80
2006,04,02,08,42,7.80
2006,04,02,08,43,7.80
2006,04,02,08,44,7.80
2006,04,02,08,45,7.80
2006,04,02,08,46,7.80
2006,04,02,08,47,7.80
2006,04,02,08,48,7.80
2006,04,02,08,49,7.80
2006,04,02,08,50,7.80
2006,04,02,08,51,7.80
2006,04,02,08,52,7.80
2006,04,02,08,53,7.80
2006,04,02,08,54,7.80
2006,04,02,08,55,7.80
2006,04,02,08,56,7.90
2006,04,02,08,57,7.90
2006,04,02,08,58,7.90
2006,04,02,08,59,7.90
2006,04,02,09,00,7.90
2006,04,02,09,01,7.90
2006,04,02,09,02,7.90
2006,04,02,09,03,7.90
2006,04,02,09,04,7.90
2006,04,02,09,05,8.00
2006,04,02,09,06,8.00
2006,04,02,09,07,8.00
2006,04,02,09,08,8.00
2006,04,02,09,09,8.00
2006,04,02,09,10,8.00
2006,04,02,09,11,8.10
2006,04,02,09,12,8.10
2006,04,02,09,13,8.10
2006,04,02,09,14,8.10
2006,04,02,09,15,8.10
2006,04,02,09,16,8.10
2006,04,02,09,17,8.10
2006,04,02,09,18,8.10
2006,04,02,09,19,8.10
2006,04,02,09,20,8.10
2006,04,02,09,21,8.10
2006,04,02,09,22,8.10
2006,04,02,09,23,8.20
2006,04,02,09,24,8.20
2006,04,02,09,25,8.20
2006,04,02,09,26,8.20
2006,04,02,09,27,8.20
2006,04,02,09,28,8.20
2006,04,02,09,29,8.20
2006,04,02,09,30,8.20
2006,04,02,09,31,8.20
2006,04,02,09,32,8.20
2006,04,02,09,33,8.30
2006,04,02,09,34,8.30
2006,04,02,09,35,8.30
2006,04,02,09,36,8.30
2006,04,02,09,37,8.40
2006,04,02,09,38,8.40
2006,04,02,09,39,8.40
2006,04,02,09,40,8.40
2006,04,02,09,41,8.40
2006,04,02,09,42,8.50
2006,04,02,09,43,8.40
2006,04,02,09,44,8.40
2006,04,02,09,45,8.40
2006,04,02,09,46,8.50
2006,04,02,09,47,8.50
2006,04,02,09,48,8.60
2006,04,02,09,49,8.60
2006,04,02,09,50,8.60
2006,04,02,09,51,8.60
2006,04,02,09,52,8.60
2006,04,02,09,53,8.60
2006,04,02,09,54,8.60
2006,04,02,09,55,8.60
2006,04,02,09,56,8.60
2006,04,02,09,57,8.60
2006,04,02,09,58,8.60
2006,04,02,09,59,8.70
2006,04,02,10,00,8.70
2006,04,02,10,01,8.70
2006,04,02,10,02,8.70
2006,04,02,10,03,8.70
2006,04,02,10,04,8.70
2006,04,02,10,05,8.70
2006,04,02,10,06,8.70
2006,04,02,10,07,8.70
2006,04,02,10,08,8.70
2006,04,02,10,09,8.70
2006,04,02,10,10,8.70
2006,04,02,10,11,8.70
2006,04,02,10,12,8.70
2006,04,02,10,13,8.70
2006,04,02,10,14,8.70
2006,04,02,10,15,8.70
2006,04,02,10,16,8.70
2006,04,02,10,17,8.70
2006,04,02,10,18,8.70
2006,04,02,10,19,8.70
2006,04,02,10,20,8.70
2006,04,02,10,21,8.60
2006,04,02,10,22,8.60
2006,04,02,10,23,8.60
2006,04,02,10,24,8.60
2006,04,02,10,25,8.60
2006,04,02,10,26,8.70
2006,04,02,10,27,8.70
2006,04,02,10,28,8.70
2006,04,02,10,29,8.70
2006,04,02,10,30,8.70
2006,04,02,10,31,8.70
2006,04,02,10,32,8.70
2006,04,02,10,33,8.70
2006,04,02,10,34,8.70
2006,04,02,10,35,8.80
2006,04,02,10,36,8.80
2006,04,02,10,37,8.80
2006,04,02,10,38,8.80
2006,04,02,10,39,8.90
2006,04,02,10,40,8.90
2006,04,02,10,41,9.00
2006,04,02,10,42,9.00
2006,04,02,10,43,9.00
2006,04,02,10,44,9.00
2006,04,02,10,45,9.00
2006,04,02,10,46,9.00
2006,04,02,10,47,9.10
2006,04,02,10,48,9.10
2006,04,02,10,49,9.20
2006,04,02,10,50,9.20
2006,04,02,10,51,9.20
2006,04,02,10,52,9.10
2006,04,02,10,53,9.10
2006,04,02,10,54,9.10
2006,04,02,10,55,9.10
2006,04,02,10,56,9.10
2006,04,02,10,57,9.20
2006,04,02,10,58,9.20
2006,04,02,10,59,9.20
2006,04,02,11,00,9.20
2006,04,02,11,01,9.20
2006,04,02,11,02,9.30
2006,04,02,11,03,9.30
2006,04,02,11,04,9.40
2006,04,02,11,05,9.50
2006,04,02,11,06,9.60
2006,04,02,11,07,9.60
2006,04,02,11,08,9.70
2006,04,02,11,09,9.60
2006,04,02,11,10,9.50
2006,04,02,11,11,9.60
2006,04,02,11,12,9.60
2006,04,02,11,13,9.60
2006,04,02,11,14,9.50
2006,04,02,11,15,9.50
2006,04,02,11,16,9.60
2006,04,02,11,17,9.50
2006,04,02,11,18,9.50
2006,04,02,11,19,9.50
2006,04,02,11,20,9.50
2006,04,02,11,21,9.60
2006,04,02,11,22,9.60
2006,04,02,11,23,9.70
2006,04,02,11,24,9.70
2006,04,02,11,25,9.80
2006,04,02,11,26,9.80
2006,04,02,11,27,9.80
2006,04,02,11,28,9.70
2006,04,02,11,29,9.70
2006,04,02,11,30,9.80
2006,04,02,11,31,10.00
2006,04,02,11,32,10.10
2006,04,02,11,33,10.10
2006,04,02,11,34,10.10
2006,04,02,11,35,10.10
2006,04,02,11,36,10.00
2006,04,02,11,37,9.90
2006,04,02,11,38,9.90
2006,04,02,11,39,9.80
2006,04,02,11,40,9.70
2006,04,02,11,41,9.70
2006,04,02,11,42,9.80
2006,04,02,11,43,9.90
2006,04,02,11,44,10.00
2006,04,02,11,45,10.10
2006,04,02,11,46,10.30
2006,04,02,11,47,10.40
2006,04,02,11,48,10.40
2006,04,02,11,49,10.50
2006,04,02,11,50,10.50
2006,04,02,11,51,10.40
2006,04,02,11,52,10.40
2006,04,02,11,53,10.30
2006,04,02,11,54,10.30
2006,04,02,11,55,10.40
2006,04,02,11,56,10.40
2006,04,02,11,57,10.40
2006,04,02,11,58,10.30
2006,04,02,11,59,10.20
2006,04,02,12,00,10.30
2006,04,02,12,01,10.30
2006,04,02,12,02,10.40
2006,04,02,12,03,10.40
2006,04,02,12,04,10.40
2006,04,02,12,05,10.40
2006,04,02,12,06,10.40
2006,04,02,12,07,10.50
2006,04,02,12,08,10.50
2006,04,02,12,09,10.40
2006,04,02,12,10,10.40
2006,04,02,12,11,10.30
2006,04,02,12,12,10.40
2006,04,02,12,13,10.40
2006,04,02,12,14,10.40
2006,04,02,12,15,10.50
2006,04,02,12,16,10.60
2006,04,02,12,17,10.60
2006,04,02,12,18,10.60
2006,04,02,12,19,10.60
2006,04,02,12,20,10.60
2006,04,02,12,21,10.60
2006,04,02,12,22,10.60
2006,04,02,12,23,10.60
2006,04,02,12,24,10.60
2006,04,02,12,25,10.50
2006,04,02,12,26,10.40
2006,04,02,12,27,10.50
2006,04,02,12,28,10.60
2006,04,02,12,29,10.60
2006,04,02,12,30,10.70
2006,04,02,12,31,10.80
2006,04,02,12,32,10.90
2006,04,02,12,33,10.80
2006,04,02,12,34,10.80
2006,04,02,12,35,10.90
2006,04,02,12,36,10.90
2006,04,02,12,37,10.90
2006,04,02,12,38,11.00
2006,04,02,12,39,11.10
2006,04,02,12,40,11.10
2006,04,02,12,41,11.00
2006,04,02,12,42,10.90
2006,04,02,12,43,11.00
2006,04,02,12,44,11.10
2006,04,02,12,45,11.00
2006,04,02,12,46,10.90
2006,04,02,12,47,10.80
2006,04,02,12,48,10.70
2006,04,02,12,49,10.70
2006,04,02,12,50,10.70
2006,04,02,12,51,10.70
2006,04,02,12,52,10.70
2006,04,02,12,53,10.70
2006,04,02,12,54,10.80
2006,04,02,12,55,10.90
2006,04,02,12,56,10.90
2006,04,02,12,57,11.00
2006,04,02,12,58,11.10
2006,04,02,12,59,11.20
2006,04,02,13,00,11.30
2006,04,02,13,01,11.30
2006,04,02,13,02,11.30
2006,04,02,13,03,11.30
2006,04,02,13,04,11.20
2006,04,02,13,05,11.20
2006,04,02,13,06,11.30
2006,04,02,13,07,11.30
2006,04,02,13,08,11.30
2006,04,02,13,09,11.30
2006,04,02,13,10,11.40
2006,04,02,13,11,11.50
2006,04,02,13,12,11.50
2006,04,02,13,13,11.40
2006,04,02,13,14,11.40
2006,04,02,13,15,11.40
2006,04,02,13,16,11.40
2006,04,02,13,17,11.30
2006,04,02,13,18,11.30
2006,04,02,13,19,11.30
2006,04,02,13,20,11.30
2006,04,02,13,21,11.40
2006,04,02,13,22,11.40
2006,04,02,13,23,11.40
2006,04,02,13,24,11.40
2006,04,02,13,25,11.50
2006,04,02,13,26,11.60
2006,04,02,13,27,11.60
2006,04,02,13,28,11.70
2006,04,02,13,29,11.70
2006,04,02,13,30,11.80
2006,04,02,13,31,11.80
2006,04,02,13,32,11.80
2006,04,02,13,33,11.80
2006,04,02,13,34,11.90
2006,04,02,13,35,11.90
2006,04,02,13,36,11.90
2006,04,02,13,37,11.90
2006,04,02,13,38,12.00
2006,04,02,13,39,12.10
2006,04,02,13,40,12.10
2006,04,02,13,41,12.10
2006,04,02,13,42,12.20
2006,04,02,13,43,12.20
2006,04,02,13,44,12.20
2006,04,02,13,45,12.30
2006,04,02,13,46,12.30
2006,04,02,13,47,12.20
2006,04,02,13,48,12.20
2006,04,02,13,49,12.20
2006,04,02,13,50,12.10
2006,04,02,13,51,12.20
2006,04,02,13,52,12.10
2006,04,02,13,53,12.10
2006,04,02,13,54,12.00
2006,04,02,13,55,12.00
2006,04,02,13,56,12.00
2006,04,02,13,57,11.90
2006,04,02,13,58,11.90
2006,04,02,13,59,11.80
2006,04,02,14,00,11.90
2006,04,02,14,01,11.90
2006,04,02,14,02,11.80
2006,04,02,14,03,11.80
2006,04,02,14,04,11.80
2006,04,02,14,05,11.80
2006,04,02,14,06,11.80
2006,04,02,14,07,11.80
2006,04,02,14,08,11.80
2006,04,02,14,09,11.80
2006,04,02,14,10,11.80
2006,04,02,14,11,11.90
2006,04,02,14,12,11.90
2006,04,02,14,13,11.90
2006,04,02,14,14,11.90
2006,04,02,14,15,11.90
2006,04,02,14,16,11.90
2006,04,02,14,17,11.90
2006,04,02,14,18,11.90
2006,04,02,14,19,11.90
2006,04,02,14,20,11.90
2006,04,02,14,21,11.90
2006,04,02,14,22,11.90
2006,04,02,14,23,11.90
2006,04,02,14,24,11.90
2006,04,02,14,25,12.00
2006,04,02,14,26,12.00
2006,04,02,14,27,12.00
2006,04,02,14,28,12.00
2006,04,02,14,29,12.00
2006,04,02,14,30,12.00
2006,04,02,14,31,12.00
2006,04,02,14,32,12.00
2006,04,02,14,33,12.00
2006,04,02,14,34,12.00
2006,04,02,14,35,12.10
2006,04,02,14,36,12.10
2006,04,02,14,37,12.10
2006,04,02,14,38,12.10
2006,04,02,14,39,12.20
2006,04,02,14,40,12.30
2006,04,02,14,41,12.30
2006,04,02,14,42,12.30
2006,04,02,14,43,12.40
2006,04,02,14,44,12.40
2006,04,02,14,45,12.50
2006,04,02,14,46,12.60
2006,04,02,14,47,12.60
2006,04,02,14,48,12.60
2006,04,02,14,49,12.70
2006,04,02,14,50,12.60
2006,04,02,14,51,12.60
2006,04,02,14,52,12.60
2006,04,02,14,53,12.70
2006,04,02,14,54,12.70
2006,04,02,14,55,12.70
2006,04,02,14,56,12.70
2006,04,02,14,57,12.70
2006,04,02,14,58,12.80
2006,04,02,14,59,12.80
2006,04,02,15,00,12.80
2006,04,02,15,01,12.80
2006,04,02,15,02,12.80
2006,04,02,15,03,12.90
2006,04,02,15,04,12.90
2006,04,02,15,05,12.90
2006,04,02,15,06,13.00
2006,04,02,15,07,13.10
2006,04,02,15,08,13.30
2006,04,02,15,09,13.30
2006,04,02,15,10,13.40
2006,04,02,15,11,13.50
2006,04,02,15,12,13.60
2006,04,02,15,13,13.60
2006,04,02,15,14,13.60
2006,04,02,15,15,13.60
2006,04,02,15,16,13.50
2006,04,02,15,17,13.40
2006,04,02,15,18,13.40
2006,04,02,15,19,13.50
2006,04,02,15,20,13.50
2006,04,02,15,21,13.60
2006,04,02,15,22,13.70
2006,04,02,15,23,13.70
2006,04,02,15,24,13.70
2006,04,02,15,25,13.70
2006,04,02,15,26,13.60
2006,04,02,15,27,13.70
2006,04,02,15,28,13.70
2006,04,02,15,29,13.70
2006,04,02,15,30,13.80
2006,04,02,15,31,13.90
2006,04,02,15,32,13.90
2006,04,02,15,33,14.00
2006,04,02,15,34,14.00
2006,04,02,15,35,14.00
2006,04,02,15,36,14.10
2006,04,02,15,37,14.20
2006,04,02,15,38,14.20
2006,04,02,15,39,14.20
2006,04,02,15,40,14.20
2006,04,02,15,41,14.20
2006,04,02,15,42,14.20
2006,04,02,15,43,14.20
2006,04,02,15,44,14.10
2006,04,02,15,45,14.10
2006,04,02,15,46,14.10
2006,04,02,15,47,14.10
2006,04,02,15,48,14.30
2006,04,02,15,49,14.30
2006,04,02,15,50,14.30
2006,04,02,15,51,14.30
2006,04,02,15,52,14.30
2006,04,02,15,53,14.30
2006,04,02,15,54,14.30
2006,04,02,15,55,14.40
2006,04,02,15,56,14.40
2006,04,02,15,57,14.40
2006,04,02,15,58,14.20
2006,04,02,15,59,14.20
2006,04,02,16,00,14.30
2006,04,02,16,01,14.30
2006,04,02,16,02,14.30
2006,04,02,16,03,14.20
2006,04,02,16,04,14.20
2006,04,02,16,05,14.10
2006,04,02,16,06,14.10
2006,04,02,16,07,14.10
2006,04,02,16,08,14.20
2006,04,02,16,09,14.20
2006,04,02,16,10,14.20
2006,04,02,16,11,14.20
2006,04,02,16,12,14.20
2006,04,02,16,13,14.10
2006,04,02,16,14,14.00
2006,04,02,16,15,14.00
2006,04,02,16,16,14.00
2006,04,02,16,17,14.10
2006,04,02,16,18,14.00
2006,04,02,16,19,14.00
2006,04,02,16,20,14.00
2006,04,02,16,21,14.00
2006,04,02,16,22,14.00
2006,04,02,16,23,14.00
2006,04,02,16,24,14.10
2006,04,02,16,25,14.10
2006,04,02,16,26,14.00
2006,04,02,16,27,14.00
2006,04,02,16,28,14.00
2006,04,02,16,29,14.00
2006,04,02,16,30,13.90
2006,04,02,16,31,13.90
2006,04,02,16,32,13.90
2006,04,02,16,33,13.80
2006,04,02,16,34,13.90
2006,04,02,16,35,13.80
2006,04,02,16,36,13.80
2006,04,02,16,37,13.90
2006,04,02,16,38,13.90
2006,04,02,16,39,13.90
2006,04,02,16,40,13.80
2006,04,02,16,41,13.70
2006,04,02,16,42,13.70
2006,04,02,16,43,13.70
2006,04,02,16,44,13.60
2006,04,02,16,45,13.60
2006,04,02,16,46,13.60
2006,04,02,16,47,13.60
2006,04,02,16,48,13.50
2006,04,02,16,49,13.50
2006,04,02,16,50,13.60
2006,04,02,16,51,13.60
2006,04,02,16,52,13.70
2006,04,02,16,53,13.70
2006,04,02,16,54,13.70
2006,04,02,16,55,13.70
2006,04,02,16,56,13.70
2006,04,02,16,57,13.70
2006,04,02,16,58,13.80
2006,04,02,16,59,13.80
2006,04,02,17,00,13.80
2006,04,02,17,01,13.80
2006,04,02,17,02,13.80
2006,04,02,17,03,13.80
2006,04,02,17,04,13.80
2006,04,02,17,05,13.80
2006,04,02,17,06,13.80
2006,04,02,17,07,13.70
2006,04,02,17,08,13.70
2006,04,02,17,09,13.70
2006,04,02,17,10,13.60
2006,04,02,17,11,13.50
2006,04,02,17,12,13.40
2006,04,02,17,13,13.40
2006,04,02,17,14,13.30
2006,04,02,17,15,13.30
2006,04,02,17,16,13.30
2006,04,02,17,17,13.30
2006,04,02,17,18,13.30
2006,04,02,17,19,13.30
2006,04,02,17,20,13.30
2006,04,02,17,21,13.30
2006,04,02,17,22,13.30
2006,04,02,17,23,13.30
2006,04,02,17,24,13.30
2006,04,02,17,25,13.30
2006,04,02,17,26,13.30
2006,04,02,17,27,13.30
2006,04,02,17,28,13.30
2006,04,02,17,29,13.30
2006,04,02,17,30,13.30
2006,04,02,17,31,13.30
2006,04,02,17,32,13.30
2006,04,02,17,33,13.30
2006,04,02,17,34,13.30
2006,04,02,17,35,13.30
2006,04,02,17,36,13.30
2006,04,02,17,37,13.20
2006,04,02,17,38,13.20
2006,04,02,17,39,13.20
2006,04,02,17,40,13.20
2006,04,02,17,41,13.10
2006,04,02,17,42,13.20
2006,04,02,17,43,13.20
2006,04,02,17,44,13.20
2006,04,02,17,45,13.10
2006,04,02,17,46,13.10
2006,04,02,17,47,13.20
2006,04,02,17,48,13.20
2006,04,02,17,49,13.20
2006,04,02,17,50,13.20
2006,04,02,17,51,13.20
2006,04,02,17,52,13.20
2006,04,02,17,53,13.20
2006,04,02,17,54,13.20
2006,04,02,17,55,13.20
2006,04,02,17,56,13.20
2006,04,02,17,57,13.20
2006,04,02,17,58,13.10
2006,04,02,17,59,13.10
2006,04,02,18,00,13.10
2006,04,02,18,01,13.10
2006,04,02,18,02,13.10
2006,04,02,18,03,13.10
2006,04,02,18,04,13.10
2006,04,02,18,05,13.10
2006,04,02,18,06,13.10
2006,04,02,18,07,13.10
2006,04,02,18,08,13.10
2006,04,02,18,09,13.10
2006,04,02,18,10,13.10
2006,04,02,18,11,13.10
2006,04,02,18,12,13.10
2006,04,02,18,13,13.10
2006,04,02,18,14,13.10
2006,04,02,18,15,13.10
2006,04,02,18,16,13.10
2006,04,02,18,17,13.10
2006,04,02,18,18,13.10
2006,04,02,18,19,13.10
2006,04,02,18,20,13.10
2006,04,02,18,21,13.10
2006,04,02,18,22,13.10
2006,04,02,18,23,13.10
2006,04,02,18,24,13.10
2006,04,02,18,25,13.00
2006,04,02,18,26,13.00
2006,04,02,18,27,13.00
2006,04,02,18,28,13.00
2006,04,02,18,29,13.00
2006,04,02,18,30,12.90
2006,04,02,18,31,12.90
2006,04,02,18,32,12.90
2006,04,02,18,33,12.90
2006,04,02,18,34,12.90
2006,04,02,18,35,12.90
2006,04,02,18,36,12.80
2006,04,02,18,37,12.80
2006,04,02,18,38,12.80
2006,04,02,18,39,12.80
2006,04,02,18,40,12.80
2006,04,02,18,41,12.80
2006,04,02,18,42,12.80
2006,04,02,18,43,12.80
2006,04,02,18,44,12.80
2006,04,02,18,45,12.80
2006,04,02,18,46,12.80
2006,04,02,18,47,12.80